Back to catalog

SCOUT G-1 DEB

LostPO
NORAD 28674·DEBRIS·🇺🇸 United States

Launched Aug 25, 1988 from Vandenberg Space Force Base

Loading…

Next Passes (next 24 hours)

TLE

StaleSource: Space-Track

Epoch: Dec 31, 2014, 17:34 UTC

1 28674U 88074K   14365.73238720  .00000230  00000-0  19579-3 0  9994
2 28674  89.8757 351.1535 0061115 104.1854  21.2319 13.83551164503310

Track SCOUT G-1 DEB in real time with AllMySat

Download on the App Store